SPACEMOBILE-SSR03 DEB, 62371

Orbit data source: Space-Track

SPACEMOBILE-SSR03 DEB, 62371 is space debris in LEO originally from a launch on Thu, 12 Sep 2024 UTC launched from the Air Force Eastern Test Range (AFETR). Debris objects in space refer to the collection of defunct objects orbiting the Earth. Examples of debris include non-operational satellites, rocket bodies, and fragments generated from explosions, collisions, or faulty payload assembly.

Loading next visibility...
Identifier
62371, 2024-163H
Orbit
LEO
Last TLE update
8 hours ago
Origin
Manufacturer
AST & Science
Mission
Spacecraft
Bus & Motor
BW3 LVA, Unknown motor
Mass
150 kg wet, 150 kg dry
Launch date (UTC)
2024-09-12 (10 months ago)
Launch vehicle
Unknown
Launch site
Air Force Eastern Test Range (AFETR)
Object type
Payload
Rocket body
Debris
Shape & HBR
Cyl, 2 m
Radar Cross Section
1.963 m², Large (>1 m²)

Expand to show TLE details & history

TLE from 8 hours ago
0 SPACEMOBILE-SSR03 DEB
1 62371U 24163H   25182.10428956  .00009541  00000-0  36365-3 0  9993
2 62371  52.9733 117.7193 0011738 119.7703 240.4463 15.27329989 38017
Epoch: 2025-07-01T02:30Z
TLE epoch observation values (Epoch: 2025-07-01T02:30:10.617Z)
Latitude
-0.00006°
Longitude
160.77049°
Altitude
488.656 km
Speed
7.62 km/s
True Right ascension
07h 50m 52s
True Declination
0° 00' 00"
Sunlit
Object was in daylight at epoch
Visualization orbit readout
Latitude
-27.64228°
Longitude
136.14757°
Altitude
499.36 km
Speed
7.611 km/s
Apparent Right ascension
07h 48m 34s
Apparent Declination
-36° 30' 01"
Sunlit
Object is in daylight
Visualization observer readout
Local Sidereal Time
21:50:27
Azimuth
91.639° ESE
Elevation
-65.932°
Doppler factor
1
Orbital elements
Apogee altitude
492.139 km
Perigee altitude
476.029 km
Semi-major axis
6,862.221 km
Eccentricity
0.00117
Inclination
52.9733°
RAAN
117.7193°
Arg. of periapsis
119.7703°
True anomaly
Unknown
Mean anomaly
240.4463°
Eccentric anomaly
Unknown
Mean motion
3.81809 °/min
Orbital period
94.29 mins
BSTAR
0.00036365
Loading maneuver chart data...
Loading SW <> Apogee altitude chart data...
Loading historical data...
Loading historical data...
Loading historical data...
Loading historical data...
Loading historical data...
Loading historical data...
Loading historical data...

SPACEMOBILE-SSR03 DEB Visibility forecast

Observer location: undefined°, undefined°

Span
Click to sort rows by Start time (UTC) header in descending order
Start Az.
Max El. time (UTC)
Max El. Az.
Max El.
End time (UTC)
End Az.
5 mins2025-07-01 21:30:02.902Z182.999° SSW2025-07-01 21:33:02.902Z123.028° SE22.289°2025-07-01 21:35:02.902Z83.11° E
5 mins2025-07-01 23:09:02.902Z272.235° WNW2025-07-01 23:11:02.902Z341.786° N32.606°2025-07-01 23:14:02.902Z37.654° NE
5 mins2025-07-02 04:06:02.902Z338.973° N2025-07-02 04:08:02.902Z24.342° NE24.9°2025-07-02 04:11:02.902Z86.452° E
5 mins2025-07-02 05:44:02.902Z288.902° WNW2025-07-02 05:46:02.902Z241.468° WSW32.86°2025-07-02 05:49:02.902Z159.557° S
|